Home   Weather   Bardufoss   Past weeks

Flag for Norway Past Weather in Bardufoss, Norway — Yesterday and Last 2 Weeks

30 °F

Scattered clouds.

Feels Like: 30 °F
Forecast: 18 / 28 °F
Wind: No wind

Location: Bardufoss

Current Time: Oct 26, 2016 at 3:28:25 PM

Latest Report: Oct 26, 2016 at 2:50 PM

Visibility: N/A

Pressure: 29.92 "Hg

Humidity: 86%

Dew Point: 27 °F

Location of BardufossLocation

Past Weather in Bardufoss — Graph


Bardufoss Temperature Yesterday

Maximum temperature yesterday: 30 °F (at 12:50 PM)
Minimum temperature yesterday: 18 °F (at 4:50 AM)
Average temperature yesterday: 26 °F

High & Low Weather Summary for the Past Weeks

High52 °F (Oct 12, 1:50 PM)100% (Oct 12, 4:20 PM)30.63 "Hg (Oct 12, 4:20 PM)
Low14 °F (Oct 24, 4:50 AM)67% (Oct 12, 1:50 PM)29.95 "Hg (Oct 26, 12:50 PM)
Average30 °F93%30.39 "Hg
* Reported Oct 11 1:20 PM — Oct 26 1:50 PM, Bardufoss, Weather by CustomWeather, © 2016

Note: Actual official high and low records may vary slightly from our data, if they occured in-between our weather recording intervals... More about our weather records


Bardufoss Weather History for the Previous 24 Hours

Scroll right to see more
Time TempWeatherWind HumidityBarometerVisibility
1:50 PM
Wed, Oct 26
30 °FPassing clouds.1 mph93%29.95 "HgN/A
1:20 PM30 °FPassing clouds.No wind93%29.95 "HgN/A
12:50 PM30 °FPassing clouds.2 mph93%29.95 "HgN/A
12:20 PM28 °FPassing clouds.No wind93%29.98 "HgN/A
11:50 AM25 °FSunny.2 mph100%29.98 "Hg10 mi
11:20 AM25 °FSunny.1 mph93%29.98 "Hg10 mi
10:50 AM23 °FPassing clouds.1 mph93%29.98 "HgN/A
10:20 AM19 °FPassing clouds.No wind100%30.01 "HgN/A
9:50 AM19 °FPassing clouds.No wind93%30.01 "HgN/A
9:20 AM18 °FPassing clouds.No wind93%30.01 "HgN/A
8:50 AM18 °FPassing clouds.No wind93%30.01 "HgN/A
8:20 AM18 °FPassing clouds.No wind93%30.01 "HgN/A
7:50 AM18 °FPassing clouds.No wind93%30.04 "HgN/A
7:20 AM18 °FClear.No wind93%30.04 "Hg10 mi
6:50 AM18 °FClear.No wind100%30.04 "Hg10 mi
6:20 AM18 °FClear.1 mph100%30.07 "Hg10 mi
5:50 AM19 °FClear.No wind93%30.07 "Hg10 mi
5:20 AM19 °FClear.1 mph100%30.07 "Hg10 mi
4:50 AM19 °FCold.No wind93%30.07 "HgN/A
4:20 AM21 °FCold.No wind93%30.07 "HgN/A
3:50 AM21 °FCold.2 mph93%30.07 "HgN/A
3:20 AM21 °FCold.3 mph100%30.07 "HgN/A
2:50 AM23 °FCold.1 mph100%30.09 "HgN/A
2:20 AM23 °FCold.No wind100%30.09 "HgN/A
1:50 AM23 °FPassing clouds.2 mph100%30.09 "HgN/A
1:20 AM25 °FPassing clouds.1 mph100%30.09 "HgN/A
12:50 AM27 °FOvercast.2 mph100%30.12 "HgN/A
12:20 AM27 °FOvercast.2 mph100%30.12 "HgN/A
11:50 PM
Tue, Oct 25
27 °FOvercast.1 mph100%30.12 "HgN/A
11:20 PM27 °FOvercast.2 mph100%30.15 "HgN/A
10:50 PM28 °FPassing clouds.No wind93%30.15 "HgN/A
9:50 PM28 °FPassing clouds.No wind100%30.15 "HgN/A
8:50 PM28 °FPassing clouds.No wind100%30.18 "HgN/A
7:50 PM28 °FPassing clouds.No wind100%30.18 "HgN/A
7:20 PM28 °FPassing clouds.No wind100%30.18 "HgN/A
6:50 PM28 °FPassing clouds.No wind100%30.18 "HgN/A
6:20 PM28 °FPassing clouds.No wind100%30.18 "HgN/A
5:50 PM28 °FPassing clouds.2 mph100%30.18 "HgN/A
5:20 PM30 °FPassing clouds.2 mph100%30.21 "HgN/A
4:50 PM30 °FPassing clouds.No wind93%30.21 "HgN/A
4:20 PM30 °FPassing clouds.No wind100%30.21 "HgN/A
3:50 PM30 °FPartly sunny.1 mph100%30.21 "HgN/A
3:20 PM30 °FPartly sunny.No wind100%30.24 "HgN/A
Weather by CustomWeather, © 2016

See weather overviewHow to use our weather pages